Weather History for New York, NY

Change the Weather History Date:

Wednesday, June 19, 2013

  Actual Average Record
Temperature  
Mean Temperature 69 °F 73 °F  
Max Temperature 77 °F 82 °F 97 °F (1994)
Min Temperature 61 °F 65 °F 56 °F (1958)
Degree Days  
Heating Degree Days 0 0  
Month to date heating degree days 4 15  
Since 1 June heating degree days 4 15  
Since 1 July heating degree days 4439 4663  
Cooling Degree Days 4 9  
Month to date cooling degree days 120 122  
Year to date cooling degree days 208 188  
Since 1 June cooling degree days 120 122  
Growing Degree Days 19 (Base 50)    
Moisture  
Dew Point 50 °F    
Average Humidity 56    
Maximum Humidity 87    
Minimum Humidity 25    
Precipitation  
Precipitation T in 0.13 in 1.46 in (1948)
Month to date precipitation 8.01 2.63  
Year to date precipitation 22.42 20.32  
Snow  
Snow 0.00 in 0.00 in - ()
Month to date snowfall 0.0 0.0  
Since 1 July snowfall 22.2 26.9  
Snow Depth 0.00 in    
Sea Level Pressure  
Sea Level Pressure 30.01 in    
Wind  
Wind Speed 9 mph (NNE)    
Max Wind Speed 16 mph    
Max Gust Speed 23 mph    
Visibility 10 miles    
Events Rain    
T = Trace of Precipitation, MM = Missing Value Source: NWS Daily Summary

Daily Weather History Graph

Daily Weather History Graph

Search for Another Location

Airport:

Trip Planner

Search our weather history database for the weather conditions in past years. The results will help you decide how hot, cold, wet, or windy it might be!

Date:

Astronomy

Jun. 19, 2013 Rise Set
Actual Time 5:23 AM EDT 8:30 PM EDT
Civil Twilight 4:50 AM EDT 9:03 PM EDT
Nautical Twilight 4:07 AM EDT 9:46 PM EDT
Astronomical Twilight 3:17 AM EDT 10:36 PM EDT
Moon 4:18 PM EDT (6/19) 2:08 AM EDT (6/19)
Length of Visible Light 16h 13m
Length of Day
15h 06m
Waxing Gibbous, 80% of the Moon is Illuminated
Jun 19
Waxing Gibbous
Jun 23
Full
Jun 30
Last Quarter
Jul 8
New
Jul 15
First Quarter

Hourly Weather History & Observations

Time (EDT) Temp. Dew Point Humidity Pressure Visibility Wind Dir Wind Speed Gust Speed Precip Events Conditions
12:51 AM 66.0 °F 61.0 °F 84% 29.88 in 8.0 mi NE 11.5 mph - 0.00 in Rain Light Rain
1:24 AM 64.4 °F 62.6 °F 94% 29.88 in 5.0 mi North 10.4 mph - 0.00 in Rain Light Rain
1:51 AM 64.0 °F 60.1 °F 87% 29.88 in 6.0 mi NE 11.5 mph 21.9 mph 0.00 in Rain Light Rain
2:42 AM 64.4 °F 57.2 °F 77% 29.89 in 10.0 mi NE 11.5 mph - 0.00 in   Overcast
2:51 AM 64.0 °F 57.9 °F 80% 29.89 in 10.0 mi NNE 12.7 mph - 0.00 in   Overcast
3:45 AM 62.6 °F 57.2 °F 82% 29.89 in 10.0 mi North 8.1 mph - N/A   Scattered Clouds
3:51 AM 63.0 °F 57.0 °F 81% 29.90 in 10.0 mi NNE 6.9 mph - N/A   Scattered Clouds
4:51 AM 62.1 °F 55.9 °F 80% 29.91 in 10.0 mi North 10.4 mph - N/A   Scattered Clouds
5:51 AM 61.0 °F 54.0 °F 78% 29.93 in 10.0 mi North 8.1 mph 17.3 mph N/A   Scattered Clouds
6:51 AM 62.1 °F 52.0 °F 70% 29.94 in 10.0 mi North 10.4 mph - N/A   Mostly Cloudy
7:51 AM 64.0 °F 50.0 °F 60% 29.99 in 10.0 mi NNE 11.5 mph - N/A   Mostly Cloudy
8:51 AM 66.0 °F 50.0 °F 56% 30.01 in 10.0 mi NNE 16.1 mph - N/A   Mostly Cloudy
9:51 AM 68.0 °F 48.9 °F 50% 30.03 in 10.0 mi ENE 10.4 mph - N/A   Scattered Clouds
10:51 AM 70.0 °F 51.1 °F 51% 30.04 in 10.0 mi ENE 9.2 mph - N/A   Scattered Clouds
11:51 AM 72.0 °F 46.9 °F 41% 30.04 in 10.0 mi ENE 9.2 mph 19.6 mph N/A   Scattered Clouds
12:51 PM 75.0 °F 46.0 °F 36% 30.05 in 10.0 mi Variable 5.8 mph 16.1 mph N/A   Scattered Clouds
1:51 PM 73.9 °F 43.0 °F 33% 30.05 in 10.0 mi North 10.4 mph 17.3 mph N/A   Scattered Clouds
2:51 PM 75.0 °F 42.1 °F 31% 30.06 in 10.0 mi NW 8.1 mph - N/A   Scattered Clouds
3:51 PM 75.9 °F 39.9 °F 27% 30.06 in 10.0 mi NNW 10.4 mph - N/A   Scattered Clouds
4:51 PM 75.9 °F 37.0 °F 24% 30.05 in 10.0 mi Variable 6.9 mph - N/A   Scattered Clouds
5:51 PM 75.9 °F 39.0 °F 26% 30.05 in 10.0 mi ENE 8.1 mph - N/A   Scattered Clouds
6:51 PM 75.0 °F 39.0 °F 27% 30.06 in 10.0 mi NE 3.5 mph - N/A   Scattered Clouds
7:51 PM 75.0 °F 43.0 °F 32% 30.08 in 10.0 mi Variable 6.9 mph - N/A   Scattered Clouds
8:51 PM 69.1 °F 55.0 °F 61% 30.09 in 10.0 mi South 10.4 mph - N/A   Scattered Clouds
9:51 PM 69.1 °F 51.1 °F 53% 30.12 in 10.0 mi South 9.2 mph - N/A   Scattered Clouds
10:51 PM 69.1 °F 52.0 °F 54% 30.14 in 10.0 mi SSW 8.1 mph - N/A   Partly Cloudy
11:51 PM 68.0 °F 48.9 °F 50% 30.16 in 10.0 mi SW 6.9 mph - N/A   Clear